TimeCDT,TemperatureF,Dew PointF,Humidity,Sea Level PressureIn,VisibilityMPH,Wind Direction,Wind SpeedMPH,Gust SpeedMPH,PrecipitationIn,Events,Conditions,WindDirDegrees,DateUTC
12:51 AM,82.9,73.9,74,29.74,10.0,North,3.5,-,N/A,,Mostly Cloudy,350,2013-09-01 05:51:00
1:51 AM,82.0,73.9,76,29.74,10.0,NNE,5.8,-,N/A,,Mostly Cloudy,30,2013-09-01 06:51:00
2:51 AM,80.1,73.9,81,29.74,10.0,Calm,Calm,-,N/A,,Scattered Clouds,0,2013-09-01 07:51:00
3:51 AM,78.1,73.9,87,29.75,10.0,NNW,4.6,-,N/A,,Scattered Clouds,330,2013-09-01 08:51:00
4:51 AM,77.0,73.9,90,29.76,8.0,NNW,3.5,-,N/A,,Mostly Cloudy,330,2013-09-01 09:51:00
5:51 AM,78.1,73.9,87,29.76,9.0,Calm,Calm,-,N/A,,Mostly Cloudy,0,2013-09-01 10:51:00
6:51 AM,77.0,73.9,90,29.76,6.0,Calm,Calm,-,N/A,,Scattered Clouds,0,2013-09-01 11:51:00
7:51 AM,80.1,75.0,85,29.77,8.0,NW,3.5,-,N/A,,Scattered Clouds,320,2013-09-01 12:51:00
8:51 AM,82.9,75.0,77,29.78,9.0,NW,3.5,-,N/A,,Scattered Clouds,310,2013-09-01 13:51:00
9:51 AM,87.1,75.9,69,29.78,10.0,West,6.9,-,N/A,,Mostly Cloudy,270,2013-09-01 14:51:00
10:51 AM,88.0,75.0,65,29.78,10.0,NW,3.5,-,N/A,,Mostly Cloudy,310,2013-09-01 15:51:00
11:51 AM,90.0,73.9,59,29.79,10.0,West,4.6,-,N/A,,Mostly Cloudy,280,2013-09-01 16:51:00
12:51 PM,91.0,73.0,55,29.78,10.0,NNW,4.6,-,N/A,,Mostly Cloudy,340,2013-09-01 17:51:00
1:39 PM,86.0,73.4,66,29.82,4.0,WNW,13.8,21.9,0.02,Rain-Thunderstorm,Light Thunderstorms and Rain,300,2013-09-01 18:39:00
1:42 PM,82.4,71.6,70,29.85,1.0,West,26.5,33.4,0.03,Rain-Thunderstorm,Thunderstorms and Rain,270,2013-09-01 18:42:00
1:51 PM,72.0,66.9,84,29.85,0.8,West,23.0,39.1,0.35,Rain-Thunderstorm,Heavy Thunderstorms and Rain,270,2013-09-01 18:51:00
2:07 PM,73.4,68.0,83,29.87,0.8,South,19.6,25.3,0.09,Rain-Thunderstorm,Heavy Thunderstorms and Rain,170,2013-09-01 19:07:00
2:28 PM,80.6,64.4,58,29.83,2.0,SSE,11.5,17.3,0.40,Rain-Thunderstorm,Light Thunderstorms and Rain,150,2013-09-01 19:28:00
2:40 PM,84.2,66.2,55,29.81,7.0,ENE,5.8,23.0,0.40,Rain-Thunderstorm,Light Thunderstorms and Rain,70,2013-09-01 19:40:00
2:46 PM,84.2,66.2,55,29.81,10.0,Calm,Calm,-,0.40,Rain,Light Rain,0,2013-09-01 19:46:00
2:51 PM,82.9,69.1,63,29.78,10.0,Calm,Calm,-,0.40,,Mostly Cloudy,0,2013-09-01 19:51:00
3:51 PM,84.9,71.1,63,29.76,10.0,Variable,4.6,-,N/A,,Mostly Cloudy,0,2013-09-01 20:51:00
4:51 PM,89.1,70.0,53,29.76,10.0,North,8.1,-,N/A,,Mostly Cloudy,350,2013-09-01 21:51:00
5:51 PM,88.0,72.0,59,29.76,10.0,North,5.8,-,N/A,,Mostly Cloudy,350,2013-09-01 22:51:00
6:51 PM,86.0,73.0,65,29.78,10.0,North,4.6,-,N/A,,Scattered Clouds,10,2013-09-01 23:51:00
7:51 PM,84.0,73.9,72,29.79,10.0,Calm,Calm,-,N/A,,Scattered Clouds,0,2013-09-02 00:51:00
8:51 PM,82.0,73.9,76,29.81,10.0,Calm,Calm,-,N/A,,Mostly Cloudy,0,2013-09-02 01:51:00
10:51 PM,81.0,73.9,79,29.81,10.0,Calm,Calm,-,N/A,,Scattered Clouds,0,2013-09-02 03:51:00
11:51 PM,78.1,73.0,84,29.82,10.0,WNW,4.6,-,N/A,,Partly Cloudy,290,2013-09-02 04:51:00